星链-4514 (STARLINK-4514 )

导读 | 豆包AI

STARLINK-4514是美国SpaceX公司星链(Starlink)星座的成员卫星,于2022年8月19日发射升空。星链项目旨在构建全球低轨宽带互联网星座,该卫星运行于近地轨道,搭载Ku/Ka波段通信载荷与霍尔推进系统,依托相控阵技术和低轨部署优势,可为偏远地区提供低延迟、高速率的卫星互联网接入服务,单星设计寿命约5-7年,退役后会主动离轨坠入大气层烧毁。

基本信息
目录编号:
53551
目录名称:
STARLINK-4514
国际标识:
2022-101AA
轨道中心:
EARTH
卫星名称:
星链-4514
卫星全名:
星链-4514 (STARLINK-4514 )
卫星状态:
在轨 (已飞行1350 天)
发射日期:
2022-08-19 UTC
国别 :
美国 (US)
星等 :
--
轨道信息
数据来源 国际轨道数据
星历时间: 2026-04-30T13:10:52+0800
12小时前
查看轨道信息
半长轴: 6917.884km
偏心率: 0.0001361
轨道倾角: 53.218°
近地点辐角 96.068°
升交点赤经 192.809°
平近点角 264.046°
近地点: 538.805km
远地点: 540.689km
周期: 95.438分钟
每日圈数: 15.088391
详细信息
固有亮度:
5
最大亮度:
2.5
卫星平台:
Starlink v1.5
覆盖范围:
全球
运营商:
太空探索技术公司
运营商所在国:
美国
制造商(研发单位):
太空探索技术公司
制造商所在国:
美国
使用方式:
暂无
卫星简介
星链(Starlink)计划是由太空探索技术公司(SpaceX)提出的一个巨型低轨卫星互联网星座项目,计划在2019年至2024年间在太空搭建由约1.2万颗卫星组成的“星链”网络,其中1584颗将部署在地球上空550千米处的近地轨道,并从2020年开始工作。该卫星仍在工作。
2D轨道图
3D轨道图
轨道高度分析图
轨道倾角分析图
轨道综合分析图
查看轨道综合分析图